Hourly Weather Bolshie Tulyany

Today, 24 July, Saturday

Time Temperature Precipitation Wind Pressure Humidity
00:00 +19°C° 0 mm 2 mps 743 mmHg 58%
01:00 +18°C° 0 mm 2 mps 743 mmHg 63%
02:00 +16°C° 0 mm 2 mps 744 mmHg 69%
03:00 +14°C° 0 mm 3 mps 744 mmHg 76%
04:00 +15°C° 0 mm 2 mps 744 mmHg 77%
05:00 +16°C° 0 mm 2 mps 744 mmHg 78%
06:00 +16°C° 0 mm 2 mps 744 mmHg 80%
07:00 +18°C° 0 mm 3 mps 744 mmHg 72%
08:00 +19°C° 0 mm 3 mps 745 mmHg 64%
09:00 +21°C° 0 mm 3 mps 745 mmHg 56%
10:00 +22°C° 0 mm 3 mps 745 mmHg 51%
11:00 +23°C° 0 mm 4 mps 745 mmHg 47%
12:00 +23°C° 0 mm 4 mps 745 mmHg 43%
13:00 +23°C° 0 mm 4 mps 745 mmHg 42%
14:00 +25°C° 0 mm 4 mps 746 mmHg 41%
15:00 +25°C° 0 mm 4 mps 746 mmHg 40%
16:00 +24°C° 0 mm 3 mps 746 mmHg 43%
17:00 +22°C° 0 mm 3 mps 746 mmHg 46%
18:00 +22°C° 0 mm 3 mps 747 mmHg 50%
19:00 +20°C° 0 mm 3 mps 747 mmHg 53%
20:00 +19°C° 0 mm 2 mps 748 mmHg 57%
21:00 +18°C° 0 mm 2 mps 748 mmHg 60%
22:00 +17°C° 0 mm 2 mps 749 mmHg 62%
23:00 +17°C° 0 mm 2 mps 749 mmHg 65%

Tomorrow, 25 July, Sunday

Time Temperature Precipitation Wind Pressure Humidity
00:00 +16°C° 0 mm 2 mps 749 mmHg 67%
01:00 +16°C° 0 mm 2 mps 749 mmHg 66%
02:00 +16°C° 0 mm 2 mps 750 mmHg 65%
03:00 +16°C° 0 mm 2 mps 750 mmHg 65%
04:00 +16°C° 0 mm 2 mps 750 mmHg 65%
05:00 +16°C° 0 mm 1 mps 751 mmHg 65%
06:00 +18°C° 0 mm 1 mps 751 mmHg 65%
07:00 +18°C° 0 mm 1 mps 751 mmHg 63%
08:00 +19°C° 0 mm 1 mps 752 mmHg 60%
09:00 +20°C° 0 mm 1 mps 752 mmHg 58%
10:00 +21°C° 0 mm 1 mps 752 mmHg 55%
11:00 +22°C° 0 mm 1 mps 752 mmHg 52%
12:00 +23°C° 0 mm 1 mps 753 mmHg 49%
13:00 +23°C° 0 mm 1 mps 753 mmHg 46%
14:00 +24°C° 0 mm 1 mps 753 mmHg 43%
15:00 +25°C° 0 mm 1 mps 753 mmHg 40%
16:00 +24°C° 0 mm 1 mps 753 mmHg 44%
17:00 +23°C° 0 mm 2 mps 753 mmHg 47%
18:00 +23°C° 0 mm 2 mps 753 mmHg 51%
19:00 +21°C° 0 mm 2 mps 753 mmHg 53%
20:00 +20°C° 0 mm 2 mps 753 mmHg 54%
21:00 +19°C° 0 mm 2 mps 754 mmHg 56%
22:00 +19°C° 0 mm 1 mps 754 mmHg 58%
23:00 +18°C° 0 mm 1 mps 754 mmHg 60%

Day after tomorrow, 26 July, Monday

Time Temperature Precipitation Wind Pressure Humidity
00:00 +18°C° 0 mm 1 mps 754 mmHg 61%
01:00 +18°C° 0 mm 1 mps 754 mmHg 61%
02:00 +18°C° 0 mm 1 mps 754 mmHg 61%
03:00 +18°C° 0 mm 1 mps 754 mmHg 61%
04:00 +18°C° 0 mm 1 mps 755 mmHg 61%
05:00 +18°C° 0 mm 1 mps 755 mmHg 62%
06:00 +19°C° 0 mm 1 mps 755 mmHg 63%
07:00 +20°C° 0 mm 1 mps 755 mmHg 55%
08:00 +22°C° 0 mm 1 mps 755 mmHg 48%
09:00 +24°C° 0 mm 1 mps 755 mmHg 41%
10:00 +25°C° 0 mm 1 mps 755 mmHg 38%
11:00 +26°C° 0 mm 1 mps 755 mmHg 34%
12:00 +27°C° 0 mm 1 mps 755 mmHg 31%
13:00 +27°C° 0 mm 1 mps 755 mmHg 30%
14:00 +27°C° 0 mm 2 mps 755 mmHg 30%
15:00 +28°C° 0 mm 2 mps 754 mmHg 29%
16:00 +27°C° 0 mm 2 mps 754 mmHg 32%
17:00 +27°C° 0 mm 2 mps 754 mmHg 34%
18:00 +26°C° 0 mm 1 mps 754 mmHg 37%
19:00 +24°C° 0 mm 2 mps 754 mmHg 42%
20:00 +21°C° 0 mm 2 mps 754 mmHg 47%
21:00 +19°C° 0 mm 2 mps 754 mmHg 52%
22:00 +18°C° 0 mm 2 mps 754 mmHg 54%
23:00 +19°C° 0 mm 1 mps 754 mmHg 56%

27 July, Tuesday

Time Temperature Precipitation Wind Pressure Humidity
00:00 +18°C° 0 mm 1 mps 754 mmHg 58%
01:00 +18°C° 0 mm 1 mps 754 mmHg 59%
02:00 +16°C° 0 mm 1 mps 754 mmHg 60%
03:00 +16°C° 0 mm 1 mps 754 mmHg 61%
04:00 +18°C° 0 mm 1 mps 754 mmHg 61%
05:00 +18°C° 0 mm 1 mps 754 mmHg 61%
06:00 +19°C° 0 mm 1 mps 755 mmHg 61%
07:00 +21°C° 0 mm 1 mps 755 mmHg 55%
08:00 +23°C° 0 mm 1 mps 754 mmHg 49%
09:00 +25°C° 0 mm 1 mps 754 mmHg 42%
10:00 +26°C° 0 mm 1 mps 754 mmHg 39%
11:00 +27°C° 0 mm 1 mps 754 mmHg 35%
12:00 +28°C° 0 mm 1 mps 754 mmHg 31%
13:00 +29°C° 0 mm 1 mps 753 mmHg 31%
14:00 +29°C° 0 mm 2 mps 753 mmHg 30%
15:00 +29°C° 0 mm 2 mps 753 mmHg 29%
16:00 +29°C° 0 mm 2 mps 752 mmHg 31%
17:00 +28°C° 0 mm 2 mps 752 mmHg 34%
18:00 +28°C° 0 mm 2 mps 752 mmHg 36%
19:00 +26°C° 0 mm 2 mps 752 mmHg 40%
20:00 +24°C° 0 mm 2 mps 752 mmHg 44%
21:00 +22°C° 0 mm 1 mps 752 mmHg 48%
22:00 +22°C° 0 mm 1 mps 752 mmHg 50%
23:00 +21°C° 0 mm 1 mps 752 mmHg 52%

28 July, Wednesday

Time Temperature Precipitation Wind Pressure Humidity
00:00 +20°C° 0 mm 1 mps 752 mmHg 54%
01:00 +20°C° 0 mm 1 mps 752 mmHg 55%
02:00 +20°C° 0 mm 1 mps 752 mmHg 56%
03:00 +18°C° 0 mm 2 mps 751 mmHg 57%
04:00 +20°C° 0 mm 1 mps 751 mmHg 57%
05:00 +20°C° 0 mm 1 mps 751 mmHg 58%
06:00 +21°C° 0 mm 1 mps 751 mmHg 58%
07:00 +23°C° 0 mm 1 mps 751 mmHg 52%
08:00 +25°C° 0 mm 2 mps 751 mmHg 46%
09:00 +27°C° 0 mm 2 mps 751 mmHg 40%
10:00 +28°C° 0 mm 2 mps 751 mmHg 37%
11:00 +29°C° 0 mm 2 mps 751 mmHg 34%
12:00 +30°C° 0 mm 2 mps 750 mmHg 31%
13:00 +30°C° 0 mm 2 mps 750 mmHg 30%
14:00 +31°C° 0 mm 2 mps 750 mmHg 29%
15:00 +31°C° 0 mm 2 mps 749 mmHg 29%
16:00 +31°C° 0 mm 2 mps 749 mmHg 31%
17:00 +30°C° 0 mm 2 mps 749 mmHg 33%
18:00 +30°C° 0 mm 1 mps 748 mmHg 35%
19:00 +28°C° 0 mm 1 mps 748 mmHg 38%
20:00 +26°C° 0 mm 1 mps 748 mmHg 41%
21:00 +24°C° 0 mm 2 mps 748 mmHg 43%
22:00 +24°C° 0 mm 2 mps 748 mmHg 44%
23:00 +23°C° 0 mm 2 mps 748 mmHg 46%

29 July, Thursday

Time Temperature Precipitation Wind Pressure Humidity
00:00 +21°C° 0 mm 2 mps 747 mmHg 47%
01:00 +21°C° 0 mm 2 mps 747 mmHg 48%
02:00 +20°C° 0 mm 2 mps 747 mmHg 49%
03:00 +20°C° 0 mm 2 mps 747 mmHg 50%
04:00 +20°C° 0 mm 2 mps 747 mmHg 56%
05:00 +20°C° 0 mm 3 mps 747 mmHg 62%
06:00 +20°C° 0 mm 3 mps 747 mmHg 68%
07:00 +20°C° 0.1 mm 3 mps 747 mmHg 69%
08:00 +21°C° 0.1 mm 3 mps 747 mmHg 70%
09:00 +21°C° 0.1 mm 3 mps 747 mmHg 70%
10:00 +21°C° 1.1 mm 3 mps 747 mmHg 77%
11:00 +20°C° 1.1 mm 3 mps 746 mmHg 83%
12:00 +19°C° 1.1 mm 3 mps 746 mmHg 89%
13:00 +19°C° 0.8 mm 3 mps 746 mmHg 89%
14:00 +19°C° 0.8 mm 3 mps 745 mmHg 89%
15:00 +20°C° 0.8 mm 3 mps 745 mmHg 90%
16:00 +20°C° 1.3 mm 3 mps 745 mmHg 90%
17:00 +20°C° 1.3 mm 3 mps 744 mmHg 90%
18:00 +21°C° 1.3 mm 3 mps 743 mmHg 90%
19:00 +20°C° 0.6 mm 2 mps 743 mmHg 92%
20:00 +19°C° 0.6 mm 2 mps 743 mmHg 94%
21:00 +20°C° 0.6 mm 1 mps 743 mmHg 97%
22:00 +19°C° 0.1 mm 1 mps 743 mmHg 97%
23:00 +19°C° 0.1 mm 1 mps 743 mmHg 97%
Show more

We Need Your Consent

Meteoprog and our Service Providers may store and access personal data such as cookies, device identifiers or other similar technologies on your device and process such data to personalise content and ads, as well as provide social media features and to analyse the traffic.

  • Store and/or access information on your device

    Cookies, device identifiers or other information can be stored or accessed on your device for the purposes indicated above.

  • Personalised ads and content, ad and content measurement, audience insights, and products development

    Ads and content can be personalised based on a profile. More data can be added to better personalise ads and content. Ad and content performance can be measured. Insights about the audience who saw the ads and content can be derived. Such data can be used to develop or improve user’s experience, systems and software.

By clicking ‘I Agree’ you will allow the use of indicated cookies, device identifiers, web beacons or other similar technologies. Your settings can be changed in the browser on your device.

For certain purposes, legitimate interests may be relied on, rather than consent. You can read more about this in our Privacy and Cookie Policy.